Location: Hylvaty SDH
(49.9612°N, 16.4057°E)
Time: 00:47:15
(UTC+01:00)

S-56A Canister/Altair - All Passes

Search period start: 26 January 2020 00:00
Search period end: 05 February 2020 00:00
Orbit: 634 x 2498 km, 38.9° (Epoch: 25 January)

Date Brightness Start Highest point End Pass type
(mag) Time Alt. Az. Time Alt. Az. Time Alt. Az.
26 Jan - 19:11:12 10° SSW 19:15:17 16° SSE 19:18:41 10° ESE visible
26 Jan - 21:13:44 10° SW 21:18:17 24° S 21:22:03 10° SE visible
26 Jan - 23:17:47 10° WSW 23:20:59 18° SSW 23:23:58 10° SSE night (unlit)
27 Jan - 18:38:20 10° SSW 18:42:39 16° SSE 18:46:14 10° ESE visible
27 Jan - 20:40:48 10° SW 20:45:45 25° S 20:49:44 10° ESE visible
27 Jan - 22:44:55 10° WSW 22:48:31 19° SSW 22:51:45 10° SSE night (unlit)
28 Jan - 18:05:28 10° SSW 18:10:00 16° SSE 18:13:45 10° ESE visible
28 Jan - 20:07:47 10° SW 20:13:12 25° S 20:17:25 10° ESE visible
28 Jan - 22:11:58 10° WSW 22:16:03 22° SSW 22:19:34 10° SE visible
29 Jan - 17:32:35 10° S 17:37:19 16° SSE 17:41:13 10° ESE visible
29 Jan - 19:34:42 10° SW 19:40:37 26° S 19:45:07 10° ESE visible
29 Jan - 21:38:56 10° WSW 21:43:34 24° SSW 21:47:22 10° SE visible
30 Jan - 16:59:42 10° S 17:04:35 15° SSE 17:08:39 10° ESE daylight
30 Jan - 19:01:34 10° SW 19:08:00 27° S 19:12:48 10° ESE visible
30 Jan - 21:05:52 10° WSW 21:11:03 26° S 21:15:09 10° SE visible
30 Jan - 23:11:40 10° SW 23:13:30 12° SSW 23:15:15 10° S night (unlit)
31 Jan - 16:26:52 10° S 16:31:50 15° SSE 16:35:59 10° ESE daylight
31 Jan - 18:28:22 10° SW 18:35:20 27° S 18:40:28 10° ESE visible
31 Jan - 20:32:42 10° WSW 20:38:31 28° S 20:42:57 10° SE visible
31 Jan - 22:38:13 10° WSW 22:41:04 14° SSW 22:43:37 10° S night (unlit)
01 Feb - 15:54:04 10° S 15:59:01 14° SSE 16:03:13 10° ESE daylight
01 Feb - 17:55:08 10° SW 18:02:38 27° SSE 18:08:06 10° ESE visible
01 Feb - 19:59:29 10° WSW 20:05:57 31° S 20:10:43 10° SE visible
01 Feb - 22:04:53 10° WSW 22:08:36 17° SSW 22:11:47 10° SSE visible
02 Feb - 15:21:24 10° S 15:26:11 14° SSE 15:30:19 10° ESE daylight
02 Feb - 17:21:53 10° SW 17:29:52 28° SSE 17:35:42 10° ESE visible
02 Feb - 19:26:12 10° WSW 19:33:20 33° S 19:38:28 10° ESE visible
02 Feb - 21:31:35 10° WSW 21:36:08 20° SSW 21:39:50 10° SSE visible
03 Feb - 14:48:51 10° SSE 14:53:18 13° SE 14:57:14 10° ESE daylight
03 Feb - 16:48:36 10° SW 16:57:04 27° SSE 17:03:16 10° ESE daylight
03 Feb - 18:52:50 10° WSW 19:00:41 34° S 19:06:12 10° ESE visible
03 Feb - 20:58:16 10° WSW 21:03:38 24° SSW 21:07:49 10° SSE visible
04 Feb - 14:16:33 10° SSE 14:20:24 12° SE 14:23:53 10° ESE daylight
04 Feb - 16:15:19 10° SSW 16:24:12 27° SSE 16:30:47 10° ESE daylight
04 Feb - 18:19:26 10° WSW 18:27:57 36° S 18:33:54 10° ESE visible
04 Feb - 20:24:55 10° WSW 20:31:06 27° SSW 20:35:45 10° SE visible
